Weather in Dim

Russia / Amur Oblast     49°39′11″N   128°25′59″E
temp.,
°C
wind,
m/s
gust,
m/s
humid.,
%
clouds,
%
prec.,
mm/h
press.,
hPa
HPBL,
m
15 april, thu
thu1500:00−3ssw224513 0.0 100913
03:00−4sw11495 0.0 100910
06:00−4ene11505 0.0 101010
09:00+2e113415 0.0 1010441
12:00+6s122793 0.0 10111530
15:00+7nne1123100 0.0 10101620
18:00+6e3325100 0.0 10101305
21:00+4e4840100 0.0 1012253
16 april, fri
fri1600:00+3e4944100 0.1 1011265
03:000e61287100 1.8 1009526
06:000ene61398100 4.6 1008653
09:00+2e81287100 4.9 1007636
12:00+6ene686946 0.2 1007831
15:00+10nne6852100 0.2 10051212
18:00+5nne91283100 1.3 1006765
21:00+3nne91490100 2.1 1007556
17 april, sat
sat1700:00+4ne71289100 0.8 1007489
03:00+4ne5992100 1.5 1007387
06:00+3nne5992100 0.2 1009347
09:00+3nne5894100 0.2 1011380
12:00+4n459198 0.0 1012392
15:00+9nnw335780 0.0 10101196
18:00+9nw335244 0.0 1011702
21:00+4w34762 0.0 101370
18 april, sun
sun1800:00+2wsw33780 0.0 101340
03:00+1wsw22810 0.0 101323
06:00+1sw22840 0.0 101331
09:00+7ssw34560 0.0 1012381
12:00+12sw34320 0.0 10101007
15:00+14wsw45350 0.0 10081256
18:00+13wsw45445 0.0 10081030
21:00+9sw22585 0.0 100814
19 april, mon
mon1900:00+7sw22680 0.0 100915
03:00+6wsw22715 0.0 100910
06:00+5w22705 0.0 101010
09:00+11w22482 0.0 1010337
12:00+16wnw33385 0.0 1010904
15:00+18nw44380 0.0 10101406
18:00+17nw34400 0.0 10101065
21:00+13w22520 0.0 101210